Location: Newark
(42.8481°N, 0.4872°E)
Time: 08:38:18
(UTC+00:00)

Transit 2A Rocket - Pass Details

Date: 27 October 2020
Orbit: 588 x 914 km, 66.7° (Epoch: 29 November)

Event Time Altitude Azimuth Distance (km) Brightness Sun altitude
Rises 08:04:20 0° 157° (SSE) 3,526 9.5 15.3°
Reaches altitude 10° 08:08:03 10° 134° (SE) 2,597 10.1 15.8°
Maximum altitude 08:11:12 15° 103° (ESE) 2,277 9.0 16.3°
Drops below altitude 10° 08:14:19 10° 72° (ENE) 2,581 8.3 16.7°
Sets 08:17:58 0° 49° (NE) 3,490 8.6 17.3°
